Weather in Falmouth

United Kingdom     50°09′18″N   5°04′53″W
temp.,
°C
wind,
m/s
gust,
m/s
humid.,
%
clouds,
%
prec.,
mm/h
press.,
hPa
HPBL,
m
18 may, wed
wed1801:00+12sw612935 0.0 1017529
04:00+10sw369520 0.0 1017179
07:00+12s3795100 0.0 1018353
10:00+14s71081100 0.0 1018827
13:00+15sse91280100 0.0 10181051
16:00+14s81384100 0.0 1017851
19:00+13s51286100 0.2 1016611
22:00+12ssw2494100 0.3 1017124
19 may, thu
thu1901:00+10w3691100 0.3 1017160
04:00+10wsw2393100 0.0 101872
07:00+10sw25920 0.0 1019185
10:00+14sw4571100 0.0 10211092
13:00+15sw5565100 0.1 10211223
16:00+15sw5566100 0.0 10211182
19:00+14ssw4577100 0.0 1021693
22:00+11ssw2288100 0.0 102158
20 may, fri
fri2001:00+11s2389100 0.0 102193
04:00+11s2492100 0.3 1020153
07:00+12s0190100 0.4 102077
10:00+11ssw1295100 1.9 1019156
13:00+12sw4793100 2.9 1019616
16:00+15wsw797849 0.4 10191064
19:00+14wsw610842 0.5 1019806
22:00+11w5109675 0.0 1021374
21 may, sat
sat2101:00+10w489760 0.0 1022225
04:00+10w3696100 0.0 1022132
07:00+11wsw2494100 0.0 1023152
10:00+15sw347332 0.0 1023640
13:00+17ssw557457 0.0 10231006
16:00+17ssw457548 0.1 1022925
19:00+16ssw338184 0.1 1021428
22:00+12ssw2293100 0.0 102222
22 may, sun
sun2201:00+12e2292100 0.0 102018
04:00+12ese2292100 0.0 101929
07:00+13ene249092 0.0 1017124
10:00+14ene3583100 0.0 1016344
13:00+16e3473100 0.1 1015489
16:00+16nnw3378100 0.0 1013386
19:00+15nnw578391 0.0 1012338
22:00+13nw369181 0.0 1013154